Theta_e
339 327 330 328 327 326 322 320 304 309 306 300 298 301 299 307 307 303 303 304 302 308 309 308 310 312 307 309 308 310 312 311 312 304 310 325 339 341 342 342 343 345 346 347 347 347 348 348 347 347 347 348 349 349 348 349 348 348 349 348 348 348 347 347 346 346 346 346 346 346 346 345 345 342 340 339 339 338 338 338 338 338 338 338 338 341 342 343 344 344 344 344 344 343 343 342 340
329 327 329 328 326 323 315 316 307 303 303 298 300 302 301 305 305 303 302 304 309 309 310 309 310 314 312 312 311 310 312 316 317 318 327 332 339 339 341 343 342 343 346 347 347 346 347 349 345 347 347 347 349 349 349 349 349 348 348 348 347 348 348 347 346 346 346 346 346 345 345 344 344 343 342 340 339 338 338 338 338 338 338 338 338 342 342 347 346 346 345 344 343 342 340 340 340
328 326 326 325 324 319 317 314 303 301 299 296 298 303 305 302 302 305 305 309 310 310 310 310 312 312 310 310 309 307 313 319 321 324 325 335 331 335 341 343 344 347 346 347 347 347 347 348 344 347 347 347 348 349 349 349 348 348 347 347 347 347 347 347 346 345 345 345 345 344 345 344 341 340 340 340 339 338 337 337 337 338 339 339 340 340 346 346 345 345 344 343 342 341 341 341 340
331 331 324 325 318 317 311 308 305 301 299 298 298 302 303 303 304 306 309 309 310 311 310 307 308 314 310 307 310 310 313 317 322 326 325 330 331 337 341 342 345 346 347 347 347 348 348 345 344 347 347 347 347 348 348 348 348 348 347 347 346 347 346 346 346 345 345 345 345 344 344 344 342 340 339 338 338 337 337 336 337 338 338 339 339 341 343 343 342 342 342 342 342 340 339 340 338
330 327 324 322 318 311 311 307 303 302 298 299 298 302 303 305 305 307 308 309 308 309 310 309 310 314 316 313 311 308 318 322 324 329 330 335 339 339 341 344 345 344 345 346 346 348 348 342 344 347 348 347 348 348 348 348 348 347 347 346 346 346 346 346 346 345 345 345 344 344 344 343 340 339 339 338 337 337 337 337 337 337 338 339 340 342 343 342 339 339 341 342 342 341 340 339 338
327 325 328 321 314 314 309 303 302 301 301 304 300 302 304 306 305 308 308 308 309 310 309 309 309 310 308 310 316 313 319 315 324 329 333 334 337 340 340 345 344 343 345 347 347 348 349 340 345 345 348 347 348 348 348 347 347 347 347 346 346 346 346 346 346 345 345 345 344 344 344 342 340 338 338 338 337 337 336 337 337 337 340 340 340 342 342 343 344 342 342 341 341 340 339 337 337
324 322 318 318 315 316 305 303 301 302 301 304 303 303 304 305 307 307 307 307 308 308 309 308 309 308 307 314 315 321 326 327 324 328 336 337 339 339 341 342 344 343 345 347 348 348 349 341 346 347 347 348 347 348 347 347 346 346 346 346 346 347 346 346 346 346 345 344 343 343 342 341 339 339 338 337 337 336 337 336 336 337 337 338 339 340 343 343 343 343 342 341 340 339 337 337 336
324 320 316 309 309 308 304 302 302 303 302 305 305 305 305 306 307 306 306 305 304 305 306 308 309 308 307 313 310 321 325 329 331 334 336 336 338 339 341 341 342 342 345 347 347 349 345 340 345 346 347 347 347 347 347 347 347 346 346 347 347 346 345 345 346 346 344 344 343 342 341 339 338 338 337 337 337 336 336 336 336 337 339 341 341 341 342 342 342 341 340 340 338 337 336 336 335
321 316 320 312 305 306 302 302 302 304 303 304 305 306 310 308 308 307 305 307 306 307 307 308 310 304 306 307 313 319 322 328 331 332 335 337 338 340 339 340 341 342 345 346 347 350 349 339 344 346 346 346 347 347 347 347 347 347 347 346 346 346 345 346 345 345 344 343 343 342 341 338 336 335 337 338 337 336 336 335 335 339 339 339 340 339 339 339 339 339 338 338 337 337 335 334 334
316 315 307 307 310 302 301 301 301 303 304 306 305 305 306 307 307 307 306 305 305 306 308 311 310 304 306 305 310 317 321 327 330 333 335 337 338 340 339 342 343 343 346 346 348 348 349 343 338 341 344 346 346 347 346 347 347 347 347 346 346 346 346 346 346 345 343 343 343 342 340 338 335 335 336 338 337 337 337 336 335 335 336 337 337 336 336 336 337 336 336 336 335 335 334 334 334
309 312 316 306 302 300 300 301 301 303 304 305 305 307 307 307 307 306 307 305 307 305 309 309 305 305 305 307 313 321 325 327 327 329 335 336 340 339 340 344 345 344 344 346 348 349 347 347 340 337 341 343 345 346 347 346 346 347 346 346 346 346 346 345 345 344 343 343 342 342 341 338 335 335 336 336 336 336 336 335 335 335 334 335 335 335 334 333 333 334 334 334 334 334 333 333 333
309 307 311 302 302 301 301 301 301 304 304 304 304 306 308 307 307 304 305 303 304 305 306 307 306 308 305 306 312 318 323 325 327 333 335 337 337 340 341 343 346 345 347 346 349 348 348 347 347 339 334 337 340 343 345 346 346 346 347 346 346 346 346 345 345 344 343 343 342 342 341 338 336 335 336 336 336 336 336 336 334 334 334 334 334 332 332 332 332 333 334 333 333 333 333 332 332
312 313 306 302 302 302 303 299 302 302 303 303 304 305 308 306 304 305 305 305 305 304 305 309 312 308 304 305 313 317 319 324 331 334 335 335 337 339 342 343 345 345 346 347 346 345 349 347 347 346 340 331 334 338 340 341 344 346 346 345 345 346 346 345 345 344 343 342 342 342 340 337 335 335 336 336 336 335 334 334 333 334 334 333 331 330 330 331 332 333 332 332 331 332 331 331 331
314 314 309 302 305 303 301 301 303 300 301 304 306 306 307 305 306 306 306 303 304 304 308 311 309 309 306 308 309 312 318 328 332 333 334 336 336 337 340 342 345 344 346 346 346 346 346 346 346 347 344 345 347 338 333 337 341 342 344 344 344 345 345 345 345 344 343 342 342 340 339 338 336 334 334 334 334 334 334 334 333 333 333 331 329 328 328 330 331 331 330 330 330 330 330 330 329
313 313 308 307 303 302 303 299 301 300 301 304 304 305 305 307 306 306 305 303 304 308 309 311 311 306 303 304 306 310 322 330 331 332 334 335 336 336 340 341 343 344 344 344 345 345 344 345 346 347 345 346 346 344 346 342 333 339 339 342 341 343 344 343 344 342 341 341 340 337 335 333 332 332 333 334 333 332 332 331 333 332 331 329 327 326 327 328 329 330 329 329 329 329 328 328 327
319 311 307 303 299 300 303 301 302 300 302 305 304 306 305 306 306 305 306 306 307 310 308 305 310 306 307 307 313 324 329 329 330 332 331 333 335 336 338 338 340 340 341 342 342 344 345 344 345 346 346 346 346 344 344 345 334 332 336 339 338 340 341 341 340 338 336 335 333 331 329 330 328 329 325 330 329 331 330 329 330 329 329 328 328 327 327 328 329 329 329 328 327 327 326 325 324
315 316 303 301 299 300 303 301 302 298 304 304 304 305 303 303 306 306 306 308 304 306 306 309 307 310 307 309 312 327 328 329 328 330 330 330 331 332 335 336 336 337 338 338 338 340 342 342 343 344 345 345 345 344 344 343 342 329 332 331 333 336 337 337 335 329 327 325 328 325 327 331 331 330 330 329 323 328 322 324 329 330 329 329 328 327 327 327 328 328 327 326 325 323 321 320 320
315 304 302 300 302 301 305 302 303 306 303 304 303 305 304 302 304 305 306 305 305 307 306 308 309 308 310 310 311 325 326 326 327 327 327 328 330 329 330 333 333 332 334 336 337 339 339 340 342 343 343 344 344 345 346 343 342 337 344 342 340 337 331 329 335 341 335 340 325 332 335 331 331 332 330 328 327 326 325 321 325 328 328 327 326 326 326 326 326 326 326 325 324 323 321 320 318
307 304 303 300 303 306 307 305 306 304 304 305 305 305 305 304 305 306 303 303 304 303 305 307 307 308 310 310 311 321 325 326 326 326 326 327 327 327 328 331 331 332 332 334 336 337 338 339 340 342 342 343 343 345 344 346 344 343 345 342 342 334 337 340 342 340 342 341 339 338 337 335 335 333 332 330 328 321 324 320 324 325 326 325 324 324 325 326 325 325 324 322 322 323 321 321 320
308 307 301 301 308 306 307 306 305 305 305 305 304 305 305 306 305 308 303 303 305 303 303 305 305 306 308 309 310 320 324 325 325 326 325 327 328 328 328 328 329 331 333 334 335 337 338 337 339 340 342 342 342 342 343 343 344 342 342 341 341 342 339 340 342 341 340 341 340 339 338 337 335 334 325 324 324 325 323 320 322 323 324 323 323 322 323 323 322 321 321 320 321 318 319 317 317
307 303 301 303 304 303 305 306 305 305 305 305 305 305 303 305 306 306 304 302 303 305 307 306 306 307 309 309 310 318 322 324 324 326 326 327 328 329 329 329 330 331 333 334 335 335 336 337 338 339 340 341 342 342 341 342 343 343 342 343 341 341 340 340 342 340 341 341 340 338 338 337 336 334 332 329 327 325 322 323 324 323 322 321 318 318 317 317 316 317 318 317 317 317 316 315 315
306 302 304 304 304 302 304 305 303 304 303 305 304 302 303 307 305 304 305 301 302 305 307 309 309 311 310 309 310 315 318 323 323 324 326 326 327 328 330 330 331 333 334 332 333 333 334 336 337 337 338 339 340 340 340 341 342 342 342 343 343 342 340 340 341 341 340 341 341 339 337 337 335 333 331 331 329 326 322 321 322 322 321 319 317 315 315 316 317 318 318 317 316 315 314 313 312
300 303 304 304 304 304 304 304 302 303 304 304 303 305 306 304 304 306 305 304 306 308 309 309 309 310 313 312 312 313 317 320 321 323 325 326 326 327 328 330 330 330 332 332 333 333 333 335 335 337 337 338 339 339 339 339 340 343 342 342 342 341 342 341 341 341 342 341 341 338 337 335 334 332 331 332 330 328 325 323 323 322 322 320 318 318 319 320 319 317 316 316 315 313 312 311 310
303 302 303 303 304 304 303 303 301 303 303 303 305 305 303 304 301 306 304 307 309 309 310 309 309 307 311 312 312 314 316 318 320 323 325 326 327 327 327 328 331 332 332 331 332 333 333 333 334 334 335 335 337 337 336 337 338 341 342 341 341 340 341 341 341 340 339 340 340 337 336 336 334 332 331 331 332 330 328 327 324 323 322 322 322 321 320 320 318 316 315 313 311 310 309 308 307
302 302 304 303 304 304 303 303 302 302 303 304 304 302 303 305 304 303 304 307 308 309 309 308 308 308 307 311 312 313 315 317 319 321 324 326 328 329 330 329 329 330 328 330 332 332 332 332 333 333 334 334 335 336 335 335 338 338 340 341 340 336 340 343 342 340 339 339 339 338 338 336 335 334 332 332 332 330 329 328 323 323 324 323 323 322 321 319 316 314 313 312 311 309 307 305 304
305 304 304 304 304 304 303 303 303 303 304 303 302 303 304 304 304 302 305 307 309 310 309 309 309 307 307 308 310 311 313 316 318 319 321 325 326 327 329 329 329 328 328 329 331 331 331 332 332 333 334 334 334 333 333 333 335 336 338 339 341 339 340 340 341 339 339 339 338 338 337 336 335 333 333 333 331 330 329 328 325 324 324 324 323 321 320 318 315 315 314 313 311 309 306 304 303
305 304 304 304 303 304 303 304 303 303 304 303 302 303 303 303 302 301 307 308 307 307 308 308 308 308 308 308 309 310 311 313 316 319 320 323 324 325 327 330 330 329 329 328 331 332 332 331 330 332 334 334 334 333 333 331 333 335 336 338 339 339 340 340 339 339 339 338 338 338 338 337 336 334 333 333 332 331 329 328 327 325 323 323 323 321 319 317 316 315 314 312 310 307 304 303 302
305 305 304 303 304 304 304 304 303 304 303 303 304 303 304 303 303 301 307 307 308 307 307 308 308 308 308 309 309 311 311 312 314 317 318 320 321 322 325 327 327 328 327 328 330 331 331 330 329 330 332 331 330 330 331 331 331 332 336 336 336 337 338 339 339 339 336 339 338 338 338 336 335 335 334 333 332 330 329 327 327 324 323 323 323 321 318 317 316 315 314 311 308 306 303 302 301
304 305 300 302 303 303 304 303 304 304 302 304 304 302 301 302 300 305 307 306 307 307 307 308 308 308 309 310 310 310 311 312 313 313 317 320 322 322 321 324 325 325 327 329 330 330 329 329 328 330 330 330 328 328 328 329 331 331 333 335 335 336 337 338 337 337 337 338 338 338 337 336 335 335 334 333 331 331 329 327 328 325 324 322 321 319 317 316 315 312 310 308 305 304 302 300 301
305 304 303 300 301 300 304 305 304 303 303 304 303 294 299 302 304 306 308 307 306 306 306 307 308 308 309 310 310 310 311 311 311 313 314 316 318 320 319 322 323 324 325 326 328 327 327 328 328 329 328 327 326 326 327 327 329 331 330 333 333 334 335 336 336 337 337 337 337 337 338 336 335 335 334 333 332 331 329 327 327 325 324 322 320 319 317 316 312 309 306 305 304 302 300 299 298
301 302 302 300 298 298 303 304 303 301 303 303 304 295 298 303 306 307 306 306 306 305 307 308 308 309 309 310 310 310 311 311 311 313 314 315 316 318 319 320 321 323 323 324 325 326 324 324 324 323 323 324 324 324 326 327 328 330 330 330 333 332 332 333 335 335 336 336 336 336 336 336 336 335 334 333 331 331 329 327 325 324 323 321 319 318 315 313 310 306 305 303 302 300 299 298 297
303 297 295 300 298 300 301 303 303 300 301 304 302 296 298 302 305 304 305 304 305 305 306 308 308 309 309 309 309 310 310 312 312 312 314 314 315 316 318 318 320 321 321 322 323 323 322 322 321 322 321 321 322 322 323 324 325 327 330 325 330 332 329 330 333 333 333 333 332 333 334 334 335 335 334 333 331 330 327 326 326 323 322 319 317 316 315 310 308 306 305 303 300 299 298 297 296
301 298 299 298 298 299 299 300 302 301 302 302 301 297 301 302 305 305 304 305 305 304 306 307 308 308 309 309 309 309 310 310 312 312 312 314 315 315 316 318 319 319 320 320 320 321 321 320 319 320 319 320 320 321 322 322 322 323 325 327 328 330 328 328 329 331 332 330 330 329 331 331 333 333 332 332 329 327 325 324 323 322 320 317 316 315 315 310 307 305 303 303 302 298 297 296 295
297 299 297 301 297 297 296 299 302 303 301 299 301 298 299 302 305 306 304 305 305 305 306 307 308 308 309 310 309 309 309 310 310 311 312 313 314 315 315 315 318 319 319 320 320 319 319 319 319 318 319 319 319 320 321 322 322 323 325 327 325 327 328 328 326 325 327 329 329 328 328 328 329 331 331 330 328 327 324 319 319 318 317 316 315 313 312 311 307 304 301 302 300 297 295 294 293
296 297 295 296 297 297 297 297 299 301 300 299 300 299 300 302 304 305 306 306 305 306 306 306 307 307 308 309 310 310 310 310 311 313 314 312 313 314 314 315 316 317 318 319 320 319 319 319 318 318 318 319 319 320 321 321 321 322 323 324 323 324 326 327 325 322 323 324 325 325 326 326 327 329 329 328 325 321 319 317 316 316 316 314 313 312 310 310 306 304 301 299 298 297 295 294 294
297 299 297 297 296 296 295 297 299 301 299 298 298 297 299 301 303 305 306 308 306 306 307 306 306 307 307 308 309 310 311 311 313 315 315 313 313 314 313 314 315 316 316 317 318 319 319 319 318 318 317 318 319 319 319 317 317 317 317 318 317 318 320 319 320 323 323 322 322 323 323 325 325 326 325 324 320 319 318 317 315 315 315 314 312 309 308 306 303 301 298 297 295 295 295 295 294
297 298 297 295 296 297 300 299 299 300 298 298 298 299 299 300 302 304 305 306 305 305 306 306 306 307 307 308 308 309 310 311 320 317 315 314 314 313 313 313 314 315 315 316 316 317 318 317 317 316 317 318 318 317 315 314 313 314 316 316 315 317 316 317 318 321 321 320 318 321 321 321 322 322 322 320 317 314 314 314 314 314 314 313 312 310 308 305 302 299 297 296 294 293 293 294 294
297 297 297 295 298 294 299 299 299 300 297 297 300 299 300 301 302 303 305 304 303 304 305 306 306 307 307 308 309 310 311 315 321 315 313 313 312 313 312 312 311 312 313 314 315 316 317 317 316 317 317 317 317 316 315 314 314 315 316 315 317 317 313 313 314 316 319 318 315 316 318 319 319 320 318 318 316 313 313 312 312 312 313 312 311 310 307 302 299 297 296 294 295 293 291 293 293
298 296 297 296 296 299 299 298 298 299 297 296 299 298 298 301 302 303 304 304 305 306 306 306 306 307 307 308 309 310 311 312 315 314 314 312 312 312 311 311 311 312 313 313 315 316 316 316 316 316 317 316 316 316 315 314 315 317 317 317 318 314 314 313 315 314 314 314 312 312 313 315 316 314 315 317 315 313 312 312 311 311 312 311 310 307 305 301 299 297 296 294 293 294 293 294 294
298 297 295 294 300 294 293 296 298 298 297 296 298 295 297 300 302 303 304 304 305 307 307 308 308 307 307 308 309 310 310 312 312 313 313 311 311 310 310 310 310 311 312 312 313 314 315 315 315 316 316 316 315 315 314 315 316 317 317 318 319 316 311 307 308 307 308 309 309 309 309 310 312 312 312 312 313 313 312 311 310 311 312 312 310 307 304 300 298 297 297 296 295 291 292 292 295
299 299 297 296 297 297 295 295 297 299 299 299 297 296 297 300 300 302 306 307 307 307 308 308 309 310 310 312 312 312 310 311 312 313 313 311 310 309 309 309 310 310 310 312 313 313 314 314 315 315 316 315 315 314 314 315 315 310 308 308 308 307 307 307 306 305 305 305 306 305 306 305 308 309 311 310 309 311 313 313 311 310 311 311 309 306 304 302 298 298 298 297 296 294 292 293 294
297 300 299 298 298 297 298 298 296 295 294 297 299 290 292 299 302 302 303 304 304 306 305 306 307 308 309 308 309 311 312 313 312 311 312 312 310 310 310 309 309 310 310 312 313 314 314 314 315 315 315 315 314 314 314 314 311 311 307 306 306 307 306 305 305 306 304 303 304 305 304 304 304 306 307 308 308 307 309 310 309 309 309 309 307 305 301 299 298 298 298 298 298 298 295 293 293
294 296 302 300 298 299 298 296 297 290 289 297 299 289 287 296 296 298 300 301 302 304 306 306 306 307 308 310 311 311 312 312 313 312 312 311 311 310 309 309 309 309 310 312 313 314 314 314 314 314 315 314 314 313 314 311 311 310 309 309 309 308 308 307 308 308 307 306 306 303 301 301 303 302 302 305 306 306 308 305 306 308 308 307 305 304 301 299 298 298 299 298 299 299 298 294 295
293 298 300 299 299 298 298 297 297 294 299 300 296 295 288 289 295 300 301 300 301 302 304 305 306 308 308 309 310 311 312 312 312 313 311 311 310 310 309 309 309 309 311 312 312 313 313 314 314 314 314 313 313 312 312 311 310 310 308 309 310 310 311 309 308 308 309 308 305 302 300 299 299 300 300 301 303 304 304 304 305 305 306 306 304 304 302 301 300 300 299 300 300 299 299 297 296
297 298 302 300 299 299 299 298 296 296 294 289 295 297 290 289 296 300 300 298 299 301 302 304 306 308 309 310 311 310 311 311 311 312 312 311 310 310 309 309 310 310 310 311 312 313 313 313 313 314 313 312 312 312 311 310 310 310 309 309 310 311 313 313 310 309 308 305 302 300 299 297 297 297 297 298 299 301 301 303 305 306 305 305 304 304 303 301 300 301 300 300 300 299 299 300 298
298 300 301 300 301 300 299 297 296 295 292 287 294 296 287 288 296 298 301 298 298 300 302 304 305 308 309 308 310 309 309 310 310 309 310 310 310 309 309 309 309 309 310 312 312 312 313 313 312 312 312 311 311 310 309 309 310 309 309 309 310 311 310 310 311 307 305 303 301 299 298 295 295 295 294 295 295 296 299 301 303 305 305 305 303 305 304 303 303 302 301 301 301 300 301 301 300
301 302 301 299 299 298 297 297 294 290 286 289 296 296 292 286 294 296 298 299 300 301 302 304 307 309 309 310 311 313 310 310 311 310 308 308 307 307 307 306 307 308 310 311 311 311 312 312 312 311 311 311 311 309 309 308 308 308 308 309 310 311 310 309 305 303 302 301 301 298 298 296 295 294 294 294 295 295 296 297 300 301 303 303 303 305 304 304 304 303 302 302 303 302 301 301 301
303 299 296 296 294 295 294 292 293 286 284 291 293 295 295 285 291 299 300 300 301 302 301 302 304 306 310 310 309 309 309 309 310 309 308 307 305 304 305 305 306 307 308 309 310 311 310 311 311 310 310 310 309 308 308 308 307 307 308 310 310 311 309 307 306 304 302 301 301 298 297 296 295 294 293 292 292 293 295 296 297 298 300 302 302 303 304 304 304 304 303 303 303 303 303 302 301
301 297 295 288 286 288 284 289 284 285 284 289 291 293 291 290 293 298 300 301 302 303 303 303 304 304 306 311 310 311 311 310 309 310 309 308 307 305 304 304 305 306 307 308 309 310 310 310 310 310 309 310 308 307 307 307 306 306 307 308 309 310 309 306 305 306 303 301 300 299 298 296 294 293 292 291 291 292 293 294 295 297 298 300 301 302 303 304 304 304 303 304 304 302 302 302 300
296 294 292 287 283 283 281 285 287 287 288 289 291 294 288 293 296 300 300 302 304 304 305 307 306 306 307 308 312 310 311 310 310 310 310 310 309 309 307 306 305 305 306 307 308 309 309 309 309 309 309 309 308 307 306 306 306 306 307 308 309 308 307 305 306 304 302 302 301 300 299 298 297 296 294 294 293 293 293 294 295 296 298 299 300 302 302 302 303 303 303 302 302 302 302 301 301
295 299 295 290 288 284 281 284 281 283 286 287 290 287 286 287 292 299 302 302 304 304 304 306 306 306 307 308 309 309 310 309 310 310 310 310 310 310 309 307 306 306 306 307 308 308 308 308 308 308 308 309 307 306 306 305 305 306 306 307 306 307 305 304 304 305 303 302 302 301 299 300 300 299 296 295 294 292 292 293 294 295 296 297 299 300 300 300 301 301 301 301 300 300 299 298 297
298 299 300 293 289 293 285 287 286 286 285 285 285 286 292 293 300 302 303 303 303 304 303 304 305 306 307 307 307 308 308 308 308 308 309 309 310 309 308 307 306 306 306 307 307 308 308 308 308 308 308 309 308 305 305 305 305 305 305 305 305 305 303 304 303 302 303 303 303 302 301 300 299 298 298 297 295 293 293 293 293 294 295 296 297 298 298 298 299 298 297 297 295 296 295 295 295
295 296 290 294 298 296 289 286 288 285 284 283 290 289 292 297 297 299 300 300 300 302 302 304 305 307 308 309 310 310 310 310 310 310 310 310 309 307 307 306 306 306 306 307 307 308 308 308 308 307 308 308 309 307 305 304 304 304 304 305 305 304 303 301 302 302 302 301 302 301 301 300 299 298 296 297 294 293 293 293 293 294 294 294 294 295 296 296 296 295 295 295 293 293 293 293 292
297 289 294 299 302 299 291 284 287 284 281 283 289 286 287 288 286 299 299 299 300 301 302 302 304 306 307 311 312 314 311 310 311 311 311 311 308 306 306 306 306 306 306 307 307 308 308 308 308 307 307 307 308 307 305 304 304 304 304 304 304 304 302 301 301 301 301 300 299 298 298 298 298 296 295 295 293 292 292 291 292 291 292 292 292 292 293 294 294 294 293 293 292 292 291 291 291
298 295 303 292 286 285 290 287 280 280 280 283 287 288 289 290 290 295 295 297 299 300 302 302 302 303 305 308 310 313 310 311 311 310 309 307 306 306 305 305 305 306 306 307 308 308 308 308 308 308 307 307 308 308 306 305 305 305 305 304 303 302 301 301 301 301 300 298 297 296 295 296 296 294 292 291 290 290 290 290 290 290 290 291 291 291 292 292 292 292 291 290 290 290 289 288 288
300 301 296 302 294 290 287 287 287 286 281 282 283 287 285 294 294 296 296 298 298 299 300 301 302 303 304 307 312 313 310 309 311 312 311 310 307 306 305 304 304 304 305 307 307 308 307 307 307 307 308 308 307 307 305 303 304 304 304 304 303 303 301 300 300 299 299 298 296 295 293 293 294 292 291 290 289 289 289 289 289 289 289 289 289 290 291 291 291 290 289 289 288 288 286 285 285
290 291 291 294 292 297 293 294 288 285 283 283 282 281 287 295 299 298 298 300 300 300 301 304 305 306 307 310 312 312 310 311 310 312 311 309 307 305 304 304 304 304 305 306 306 307 307 307 307 307 306 306 306 306 306 304 303 303 303 302 302 301 300 300 298 298 297 295 295 294 293 293 292 291 290 289 289 288 288 289 288 288 288 288 289 289 290 289 289 288 287 287 286 286 285 284 284
294 292 290 292 289 287 284 283 294 288 286 283 283 281 289 297 300 300 300 301 301 302 302 303 304 305 309 314 312 309 309 310 311 313 311 308 305 304 303 303 303 303 303 304 306 306 306 306 306 306 306 306 306 306 306 305 303 302 301 301 301 300 300 299 297 297 296 294 294 293 292 291 291 291 289 289 288 288 287 288 288 288 287 287 287 288 288 288 287 286 285 287 286 285 284 283 283
Wind_Speed
7 2 2 2 3 4 5 4 5 4 6 2 4 3 6 4 2 4 3 4 5 5 3 1 2 2 3 5 8 6 7 7 8 6 4 3 7 10 9 8 9 8 8 8 8 9 8 7 5 5 6 8 11 11 11 11 11 11 12 12 12 12 12 12 12 12 13 14 14 15 16 16 16 16 16 15 14 15 14 15 14 14 14 14 14 15 16 16 16 18 19 20 20 19 19 20 20
4 4 3 2 3 3 4 2 5 3 2 5 5 2 7 6 4 4 5 3 7 5 3 1 3 2 2 5 5 4 4 8 8 7 7 8 8 7 9 8 9 9 8 8 8 9 9 7 5 4 8 6 10 10 11 11 10 11 12 11 12 12 12 12 12 12 13 13 14 15 16 16 16 16 16 16 15 14 14 14 14 14 14 14 14 16 14 17 19 20 20 20 20 20 20 20 19
4 4 3 4 4 6 3 3 5 2 2 4 5 5 6 6 5 4 4 7 6 6 4 3 1 3 5 5 5 3 4 3 7 10 7 11 10 7 9 9 9 9 9 7 8 8 8 9 5 5 7 9 9 10 11 11 11 11 11 11 11 11 12 12 12 12 12 13 14 16 16 17 16 16 16 15 15 14 14 14 13 13 14 14 15 16 18 18 19 20 20 19 19 19 19 19 18
5 3 4 3 4 5 6 4 4 2 2 4 6 6 5 4 4 7 6 6 6 4 4 4 5 2 4 3 5 3 4 5 6 8 7 10 4 10 8 9 10 8 8 6 7 7 7 10 6 7 6 7 8 10 10 10 11 11 11 11 11 11 11 11 11 12 12 13 14 16 16 17 16 16 16 15 14 14 15 14 13 12 14 15 15 16 17 18 18 19 18 18 19 19 18 18 18
4 2 3 4 6 4 4 2 3 3 4 4 5 5 5 4 7 6 7 6 5 3 1 3 3 4 3 5 4 4 6 7 4 2 7 6 5 9 9 9 10 9 8 8 8 7 8 10 6 4 8 8 9 9 10 10 10 11 10 11 10 10 11 11 11 11 13 13 14 15 16 16 16 16 15 14 14 14 14 14 14 13 15 16 16 16 16 17 18 18 19 20 20 19 19 18 18
3 3 3 4 4 4 4 5 4 2 6 4 2 6 5 5 7 8 8 5 4 1 2 3 4 2 4 2 3 2 2 2 7 5 7 9 8 9 9 7 9 9 8 8 7 7 8 8 5 2 8 9 10 10 10 10 11 10 11 10 11 10 10 11 12 11 13 14 14 15 16 16 16 15 15 14 13 14 14 13 14 14 15 15 15 15 16 17 19 19 19 20 20 19 19 18 17
2 3 3 4 2 2 5 2 3 3 6 4 6 5 5 6 8 9 8 6 3 0 1 2 1 3 5 5 3 4 5 3 6 5 3 10 8 6 9 9 8 10 9 7 7 7 10 7 6 5 6 6 9 9 10 10 10 10 9 10 10 10 10 11 11 12 13 13 14 14 15 15 15 15 14 14 13 14 14 14 14 14 15 14 14 16 17 18 18 19 20 20 20 19 18 18 17
2 4 2 5 3 4 2 1 2 4 4 5 3 5 6 7 9 8 9 6 7 4 7 4 4 6 4 2 1 5 5 5 7 8 8 8 9 8 9 10 9 9 9 7 7 8 9 7 6 5 4 7 9 9 10 11 11 10 9 10 10 10 10 10 11 12 13 13 14 14 14 14 15 15 14 14 13 14 14 14 14 15 16 18 17 16 17 18 19 20 20 19 19 18 17 16 16
3 5 1 4 4 2 2 0 4 4 6 4 5 6 5 7 7 7 7 2 5 2 5 5 3 5 6 5 4 7 6 7 6 7 6 8 8 8 8 9 10 9 9 8 7 8 8 6 6 5 4 6 8 9 10 10 10 10 10 9 9 9 10 10 11 12 13 13 13 13 13 14 14 14 14 14 13 14 13 13 14 16 15 15 16 15 16 17 17 18 19 18 18 17 16 16 15
3 3 4 5 3 4 2 3 3 4 5 4 4 7 6 6 6 5 6 5 2 3 3 3 1 4 1 2 7 6 6 7 8 7 6 6 7 7 8 7 9 9 10 9 8 8 8 8 7 5 5 6 7 7 9 9 10 10 10 10 10 10 10 10 11 12 13 13 13 13 13 13 14 14 14 14 13 13 14 13 13 14 14 15 14 15 15 16 17 17 17 17 17 16 16 16 15
5 4 3 5 5 2 3 4 3 5 5 5 5 5 7 6 6 5 5 2 4 2 5 2 4 5 3 2 4 5 8 8 8 9 8 7 6 7 7 8 8 9 9 10 8 8 8 8 7 5 4 4 4 5 6 7 9 9 10 10 10 11 10 10 11 12 13 13 13 13 13 14 14 14 14 14 13 13 13 13 14 14 14 14 15 15 16 16 16 16 16 16 16 16 16 16 15
4 5 4 6 4 3 3 2 2 5 4 4 6 8 5 8 6 6 6 5 5 4 4 7 1 0 4 3 4 6 8 8 7 9 9 7 6 7 8 7 8 9 8 9 9 8 9 9 8 6 5 4 3 2 3 6 6 8 8 10 10 11 11 11 11 12 12 13 13 13 13 14 14 14 14 14 14 14 14 14 14 15 15 15 15 15 16 16 16 16 16 16 16 16 16 16 15
5 3 6 6 2 2 4 4 3 2 3 6 7 7 7 9 8 7 6 4 4 5 6 8 3 3 4 3 5 8 9 9 7 10 9 7 7 7 4 6 7 9 8 8 8 9 8 9 8 8 7 5 3 3 2 3 6 5 6 8 8 10 10 11 11 12 12 12 13 14 13 13 13 14 14 14 14 14 14 14 13 15 15 15 15 16 16 17 17 17 17 17 16 16 16 16 16
4 2 4 5 2 3 3 2 1 3 3 8 6 9 9 7 8 3 3 7 6 6 5 4 2 2 5 2 6 6 7 10 10 9 7 7 5 5 6 6 5 7 8 8 7 8 9 8 9 8 7 7 6 5 4 3 4 1 5 7 6 8 9 10 10 11 11 10 11 12 12 12 13 14 14 14 14 14 13 11 13 15 16 15 15 16 16 17 17 17 17 17 17 16 16 16 15
3 1 4 3 2 3 2 4 1 3 3 9 8 11 9 4 1 3 5 7 4 7 4 2 2 2 3 5 6 6 11 11 10 9 9 7 7 7 7 6 4 4 6 7 6 6 8 8 9 8 9 9 8 7 6 5 5 6 3 6 6 8 8 8 9 9 10 10 11 11 11 11 11 11 12 12 12 10 11 12 14 15 15 16 15 16 16 17 17 17 18 17 17 17 17 16 16
3 2 3 5 5 4 4 5 1 3 3 8 8 9 9 5 3 5 2 5 4 2 1 4 3 3 5 4 7 9 13 11 9 9 9 8 8 6 7 8 7 5 4 5 4 5 6 6 6 7 8 9 8 7 5 7 5 6 6 5 6 6 8 9 10 10 11 11 11 12 13 12 11 10 12 11 11 11 11 12 12 14 16 16 16 16 16 16 17 17 17 17 17 17 17 16 15
2 3 4 5 6 5 4 4 4 3 7 7 9 10 9 7 6 1 3 2 5 4 6 2 4 2 4 5 5 7 9 8 8 10 9 8 7 6 6 6 7 7 4 6 4 5 6 6 6 6 7 8 9 8 8 7 5 6 5 5 9 6 8 10 10 11 10 10 11 12 12 11 10 9 9 10 10 9 11 11 12 14 15 15 16 16 16 16 17 17 18 18 18 18 17 16 15
2 5 6 6 4 5 4 4 4 5 2 9 10 10 8 7 7 5 3 4 7 3 5 5 1 3 3 6 5 7 8 9 9 11 10 9 7 7 7 9 8 8 7 7 7 6 6 6 6 8 6 7 8 7 4 7 7 8 8 7 6 5 7 11 10 9 9 9 10 11 9 9 8 7 8 10 9 9 9 11 12 14 15 15 15 16 16 17 18 18 19 18 17 14 11 9 9
5 5 5 5 5 3 2 2 2 1 2 5 8 9 8 3 9 7 6 7 9 9 9 7 7 8 7 6 7 8 9 9 10 10 11 11 10 11 10 9 8 9 10 9 8 9 8 7 7 8 8 7 6 7 6 5 8 6 6 7 7 8 8 10 10 10 10 10 10 9 8 8 8 8 7 7 8 10 9 11 12 13 14 14 15 16 16 16 16 16 15 14 12 9 7 6 6
1 4 5 6 4 5 4 3 4 6 3 2 6 7 6 3 3 7 7 6 7 9 7 9 9 10 11 9 9 9 10 10 10 11 12 12 11 11 10 11 11 11 9 8 9 9 9 8 8 9 9 10 7 6 6 7 6 7 6 6 4 6 7 7 10 10 9 11 10 8 7 7 8 8 12 13 11 9 8 9 12 12 13 13 15 12 14 14 15 15 13 10 7 6 6 6 6
3 4 6 3 3 2 4 3 6 6 5 1 4 4 7 3 3 5 4 8 8 8 9 7 9 11 14 12 11 10 10 11 11 11 12 12 12 9 10 10 9 9 9 10 9 10 11 10 9 9 9 8 9 7 5 6 6 7 7 7 8 7 8 8 6 8 8 10 10 7 6 7 7 8 9 8 7 8 8 9 9 8 8 9 9 9 8 8 8 6 5 5 6 6 7 7 6
2 3 5 3 2 1 5 3 4 4 3 0 4 6 6 4 2 6 8 8 6 2 3 9 5 5 12 12 12 11 11 12 12 12 13 14 14 12 10 10 9 8 8 9 11 10 11 12 10 9 10 10 9 8 7 4 5 7 7 7 8 8 8 8 7 6 8 9 8 6 7 8 8 9 9 8 8 8 8 8 7 8 8 8 7 8 8 7 6 5 5 6 6 6 6 6 6
5 4 1 3 4 2 3 2 3 3 1 2 4 2 4 3 4 7 10 12 4 5 7 8 8 6 7 10 12 12 12 13 13 15 14 14 14 13 11 10 10 9 8 8 8 8 11 13 12 11 10 9 10 7 6 5 5 7 8 7 8 8 7 6 7 8 6 8 7 7 7 8 8 9 8 8 8 8 8 8 7 8 8 7 7 7 7 7 6 6 5 6 6 6 7 7 7
6 1 4 4 3 4 2 3 2 1 1 1 4 3 4 3 9 2 8 12 12 5 6 7 6 5 5 10 11 13 14 14 15 14 14 14 14 14 12 11 9 8 7 9 8 9 10 13 12 9 10 10 7 7 8 6 6 6 7 6 8 7 6 7 8 8 8 7 7 7 7 7 8 9 8 8 8 7 7 7 7 7 7 7 7 7 7 6 7 7 7 7 7 6 7 7 7
6 3 4 4 2 4 3 2 2 2 1 2 1 3 5 4 5 4 11 13 11 6 6 6 4 4 5 7 10 11 11 12 12 12 11 10 11 12 11 9 9 9 10 11 9 9 10 10 11 10 10 12 9 9 9 8 8 7 6 6 8 6 9 6 8 8 9 9 8 7 7 7 8 8 9 9 8 7 7 7 7 7 7 7 7 7 6 7 7 7 7 7 6 6 6 6 6
2 4 5 5 4 4 3 4 2 2 1 1 3 6 2 2 4 11 16 13 6 3 5 6 6 5 7 8 9 10 11 13 12 12 13 10 9 12 13 12 11 11 11 11 10 9 9 11 11 12 13 11 11 10 9 9 8 8 7 6 5 7 9 10 8 6 8 9 9 8 9 9 9 9 9 8 10 7 6 6 6 7 6 6 7 7 6 7 8 8 7 7 7 6 6 6 6
1 6 4 4 5 4 2 2 4 1 1 2 4 5 4 3 3 7 4 1 3 3 7 7 7 9 10 9 9 10 11 12 13 11 10 10 11 11 13 12 12 12 10 11 11 10 9 10 10 11 12 11 10 11 10 10 10 8 8 7 5 5 8 9 8 8 7 9 9 10 10 10 9 9 8 7 9 9 6 7 7 6 6 5 6 7 7 7 8 8 7 7 7 7 6 6 6
4 6 6 6 4 2 4 3 4 3 3 2 3 6 1 4 4 13 2 2 2 5 8 8 8 9 9 10 10 9 10 10 10 11 14 14 11 11 13 12 13 11 11 12 10 9 10 11 10 11 11 9 7 8 7 9 10 10 8 7 7 6 6 8 8 7 6 7 10 10 9 10 9 9 8 8 8 10 9 9 9 7 6 5 5 5 6 7 8 9 8 7 8 7 7 6 6
5 5 6 5 5 5 6 4 3 3 2 0 2 7 12 9 11 17 8 6 4 4 5 6 7 8 8 9 9 8 9 8 8 10 13 12 11 10 14 13 12 12 9 11 10 10 12 11 10 11 10 10 9 10 9 9 10 10 9 7 7 5 6 6 7 7 6 6 8 10 8 9 9 9 9 10 9 10 10 10 7 6 4 5 6 7 7 7 9 9 8 7 7 7 7 6 6
4 4 4 5 6 7 8 4 2 3 3 1 1 6 6 13 21 10 7 6 5 7 9 9 9 8 8 8 8 8 8 9 10 11 10 10 11 11 13 13 13 11 9 9 11 12 10 7 7 7 9 10 10 9 9 9 10 10 9 9 8 6 5 4 5 8 7 6 7 8 7 9 9 7 7 8 9 8 9 9 8 6 6 7 7 7 7 7 8 9 9 8 8 7 7 6 7
5 3 3 4 5 4 6 5 5 5 4 3 1 6 8 4 5 7 4 3 6 9 10 10 9 9 8 8 8 8 9 10 12 12 12 12 11 9 11 12 12 12 9 10 13 13 12 8 7 7 7 9 9 9 9 9 8 9 11 9 9 9 4 4 6 7 7 5 6 6 8 8 9 9 7 7 9 7 8 9 8 6 6 7 7 6 5 7 8 9 8 9 8 7 6 6 7
3 5 6 5 5 5 5 4 5 7 4 4 5 7 11 13 2 3 3 1 4 8 9 8 9 9 8 7 8 9 9 9 11 12 12 12 12 10 10 12 12 12 12 11 11 11 12 11 9 8 9 10 9 9 9 8 8 9 9 9 10 7 6 6 8 8 6 6 5 5 8 8 9 6 9 8 10 8 10 9 8 7 9 7 7 8 4 6 7 8 8 9 10 8 8 7 7
5 7 2 5 5 4 6 4 2 2 5 6 10 7 5 2 6 4 3 3 5 7 8 7 8 10 9 9 8 7 7 9 9 11 12 11 11 10 10 12 12 13 12 12 12 12 12 12 11 11 11 11 10 10 9 8 8 9 10 8 9 6 6 8 7 6 7 7 6 5 6 8 8 8 6 7 8 8 7 8 7 9 9 8 8 7 5 4 7 7 7 6 8 10 8 9 8
7 6 5 3 6 4 4 5 3 2 4 6 10 9 12 12 6 6 8 8 6 7 10 11 10 9 8 7 8 8 8 8 10 10 12 13 11 13 11 11 13 13 13 13 13 13 13 12 11 11 10 10 9 9 9 8 8 9 8 7 6 6 6 8 7 5 5 7 7 6 6 6 8 7 8 7 6 7 8 6 7 9 9 8 6 8 7 3 4 8 9 7 7 8 8 8 9
6 7 7 5 6 7 4 2 5 4 4 7 8 12 15 15 15 15 11 10 11 13 13 14 13 12 12 10 9 10 9 10 11 9 11 13 12 12 11 12 12 13 11 14 13 12 11 11 10 11 10 10 10 9 8 8 7 7 6 5 5 9 7 7 7 6 5 4 5 5 7 6 6 7 7 8 5 6 7 7 6 8 9 8 7 6 7 7 6 7 9 9 6 6 8 7 9
2 3 5 4 4 5 7 3 4 1 5 7 10 12 13 13 14 14 13 14 13 13 13 12 12 12 12 12 12 12 11 12 10 7 9 10 10 11 11 10 11 11 11 12 14 12 12 12 11 10 11 10 9 9 8 7 7 9 10 7 3 6 10 7 3 5 6 4 4 5 6 7 7 6 7 7 7 7 7 8 9 9 9 10 9 8 8 8 7 8 7 10 9 7 6 7 9
3 2 3 3 4 2 5 4 4 1 3 10 13 14 16 16 14 14 15 14 15 16 14 13 13 12 11 12 13 13 13 13 4 8 9 10 10 10 9 9 10 11 11 12 14 14 14 13 12 13 11 11 10 10 9 9 10 9 10 11 10 10 7 6 6 7 7 5 4 5 5 5 6 6 7 7 8 8 7 7 9 9 9 10 11 9 9 8 6 7 8 6 10 10 6 6 7
5 3 3 5 4 5 3 3 2 2 3 5 5 10 15 15 14 15 15 15 17 17 16 16 15 14 12 14 15 14 13 7 8 7 9 10 9 10 9 8 10 12 13 13 14 15 14 13 13 12 10 12 11 11 10 10 10 10 10 11 10 9 6 6 5 5 8 5 4 4 5 5 7 6 7 8 8 8 8 7 8 10 9 8 9 9 11 10 11 9 9 7 3 8 8 8 9
3 5 3 3 4 2 5 4 1 2 2 8 8 10 15 15 14 15 15 16 16 15 15 15 14 14 13 13 14 13 10 10 10 11 11 11 11 11 9 9 10 12 11 13 13 13 13 13 12 12 11 11 11 11 10 10 10 11 10 8 10 6 4 3 2 3 4 5 3 2 2 3 6 6 6 7 8 9 9 10 9 8 9 9 9 9 9 11 10 12 12 10 8 4 5 6 9
4 5 5 5 4 1 2 3 1 3 3 7 8 11 15 18 16 18 18 17 17 15 13 14 12 13 15 15 13 11 12 11 12 11 10 11 11 11 9 9 10 10 10 11 12 14 12 12 12 12 11 11 10 11 9 9 9 11 10 8 9 5 5 4 3 2 2 4 5 3 2 2 3 5 6 6 6 7 8 9 9 10 10 10 9 9 11 11 11 10 8 8 10 10 6 7 6
7 7 5 6 2 1 4 3 3 4 9 5 8 9 12 12 14 10 8 9 11 11 9 10 11 12 12 10 10 11 13 12 10 8 7 9 10 11 11 10 9 10 11 11 12 13 10 13 13 13 10 11 9 10 10 9 8 6 5 5 5 4 4 4 3 3 4 3 3 4 4 2 2 4 5 6 6 7 6 8 10 10 10 10 9 11 10 12 11 12 13 12 11 12 10 6 8
6 9 9 7 4 5 2 2 6 4 5 5 4 6 5 4 6 8 7 3 8 9 10 12 11 11 11 12 13 11 11 11 11 9 8 8 9 9 10 10 11 10 11 11 11 12 12 11 12 12 10 9 10 11 12 9 7 9 6 7 7 6 6 7 8 8 6 5 5 4 3 3 2 3 4 5 5 6 7 8 7 9 9 8 8 10 8 7 8 9 13 12 11 10 13 10 9
6 2 2 7 6 2 2 4 3 3 3 3 3 3 8 7 15 15 12 12 14 10 10 12 11 11 11 10 9 9 9 8 7 8 7 7 7 8 10 11 11 11 11 10 10 11 12 11 11 12 10 8 9 10 12 9 10 10 10 8 6 7 7 4 3 3 5 4 4 5 3 3 3 2 3 5 3 6 6 7 8 9 9 9 8 8 9 12 11 12 11 10 9 8 9 9 11
6 3 1 2 2 3 3 2 4 7 4 5 7 5 9 10 14 13 12 15 15 13 13 13 10 11 12 10 8 8 6 6 4 5 7 7 8 8 9 10 10 9 9 9 10 10 13 12 11 12 9 9 9 10 12 11 12 10 8 9 7 7 7 5 6 5 5 5 5 5 3 3 3 2 3 3 3 5 5 5 8 7 8 9 10 10 11 9 9 8 10 12 10 8 11 9 9
2 2 3 4 2 1 1 2 3 2 5 7 6 5 4 7 7 11 9 12 13 13 12 11 11 10 8 5 3 3 3 3 3 4 4 5 6 7 6 7 7 8 8 9 9 9 10 10 11 11 11 10 9 12 11 12 11 10 9 8 9 7 7 5 7 6 6 6 6 5 5 3 3 2 3 3 3 5 6 6 7 9 8 6 7 8 10 12 14 13 12 9 8 7 8 7 8
3 3 6 6 5 3 1 2 3 3 4 8 6 8 4 15 6 8 5 7 11 11 11 11 6 3 4 2 2 2 2 2 2 2 2 2 2 2 3 3 6 7 7 8 8 8 9 10 11 12 12 10 10 12 11 12 11 9 11 10 11 9 6 4 6 6 6 6 6 7 6 5 4 3 3 3 4 3 5 6 6 10 11 10 8 7 10 11 11 10 12 11 10 10 8 7 9
9 6 6 4 3 2 1 1 2 3 6 8 9 12 4 11 3 10 8 6 6 7 5 3 5 6 5 4 4 3 2 3 2 2 2 3 3 3 3 4 5 6 6 8 8 9 9 10 11 12 12 9 10 12 12 12 11 9 10 11 11 13 9 9 6 5 5 6 6 6 6 5 5 4 4 4 3 4 3 4 5 5 8 9 9 9 10 12 11 11 10 9 10 11 8 8 7
6 4 5 4 2 2 3 3 1 4 8 3 3 5 7 6 3 3 3 3 3 2 2 3 4 5 6 5 4 4 4 4 3 3 4 5 4 4 4 6 7 8 8 8 8 9 9 9 10 12 12 11 10 10 12 11 10 9 10 12 15 14 9 9 9 9 9 8 7 7 5 4 4 4 4 4 4 4 5 5 5 4 7 8 9 7 8 9 9 8 9 10 10 10 9 8 7
3 6 6 4 3 2 4 4 5 8 8 3 1 1 4 15 17 3 4 1 4 4 5 7 8 9 7 5 7 5 4 4 3 3 4 4 5 6 6 7 7 9 8 9 9 9 9 9 11 12 12 11 10 11 12 12 11 11 10 11 11 11 9 9 8 8 8 8 6 6 7 6 5 4 5 5 5 7 7 7 7 7 6 8 9 8 7 9 9 9 10 11 9 10 9 8 7
8 10 9 7 7 7 8 7 4 3 2 1 3 1 7 13 15 13 17 16 14 11 8 7 7 7 7 8 2 5 5 5 4 4 4 5 5 6 7 7 8 7 9 9 10 10 9 9 11 11 12 11 10 11 11 12 12 10 10 10 13 9 7 6 7 7 7 6 6 7 7 7 7 9 9 10 9 9 8 8 7 7 6 8 10 9 8 8 9 9 9 9 8 8 6 7 4
13 9 10 8 6 5 7 5 7 5 3 3 4 1 6 2 3 6 4 5 4 2 5 7 8 7 6 5 6 6 5 7 6 5 6 7 7 7 6 7 7 7 8 9 9 10 10 10 11 12 12 12 12 11 10 11 10 10 10 8 6 5 6 6 5 4 6 7 6 6 5 5 7 8 9 7 7 8 8 7 8 8 8 8 8 7 7 8 8 7 7 7 5 4 5 6 4
9 7 5 8 11 7 10 2 3 2 1 3 3 7 5 9 8 9 7 6 8 5 7 7 6 4 2 4 6 6 5 6 6 8 10 9 7 6 6 7 7 7 9 9 10 10 10 10 11 12 13 13 13 12 11 11 10 9 10 10 9 7 5 6 5 5 5 6 5 6 7 7 6 7 7 8 8 8 8 7 8 10 8 8 8 8 8 7 7 6 5 5 5 3 5 5 4
8 6 7 8 7 3 3 2 3 1 3 9 3 6 11 10 17 19 18 17 17 14 14 9 7 5 4 5 6 6 4 3 4 6 6 5 5 6 7 8 8 8 9 9 10 10 11 11 11 12 12 12 13 12 11 11 11 10 11 11 11 11 8 8 7 7 7 5 4 5 6 7 6 6 6 6 7 7 6 6 7 8 9 7 6 6 7 5 6 5 4 5 6 4 5 5 4
7 7 8 6 3 5 2 7 2 3 9 7 5 11 14 6 13 4 5 7 7 8 8 8 10 7 7 8 10 7 5 4 5 5 4 5 6 7 7 7 8 9 9 10 11 10 10 10 11 12 12 13 12 12 12 11 12 12 11 12 11 11 9 8 7 7 6 6 5 4 6 6 7 6 5 5 6 7 7 7 7 6 6 7 7 5 5 5 6 4 5 5 5 6 6 5 4
3 1 4 6 5 7 8 3 8 9 9 6 10 15 14 13 17 11 9 7 6 6 7 8 9 9 9 9 8 6 6 5 4 5 6 6 6 6 7 6 7 7 8 9 9 10 9 10 10 11 12 12 12 10 11 10 11 9 11 10 11 9 8 8 8 7 7 7 8 7 8 8 6 5 5 6 6 7 7 7 7 6 6 7 6 6 6 6 6 6 6 5 6 6 6 6 5
0 2 2 1 2 7 8 9 4 5 11 7 9 12 11 10 14 15 16 17 15 14 11 10 9 9 9 6 3 5 6 5 5 5 5 5 5 5 6 6 7 8 8 7 8 8 10 9 10 10 10 10 11 12 11 11 11 11 10 12 11 10 9 9 8 8 8 10 9 8 8 7 8 5 7 6 6 7 7 8 7 7 7 6 7 6 6 7 6 6 6 6 6 7 7 7 6
7 6 8 4 4 3 4 3 8 8 7 9 8 11 8 11 9 12 13 12 11 9 7 4 4 7 7 5 2 2 1 5 7 7 6 6 6 5 5 5 6 6 6 7 8 10 10 10 11 12 12 12 13 12 12 11 10 12 12 13 10 10 10 9 8 9 9 8 9 8 7 7 6 5 7 7 8 8 8 8 8 7 7 7 8 8 7 7 6 7 6 7 7 7 8 7 7
13 14 14 15 10 8 8 9 4 2 5 6 7 11 9 15 7 10 12 10 7 6 6 6 6 7 6 2 2 0 2 3 4 4 4 5 6 6 5 5 5 6 7 9 9 9 10 11 11 11 11 11 12 12 12 11 11 10 13 12 12 9 9 8 8 9 9 8 8 8 7 6 8 7 7 8 8 7 7 7 8 8 7 6 7 8 8 7 8 8 7 6 7 8 8 8 8
Wind_Direction
275 280 337 275 259 254 275 213 247 155 236 84 110 208 99 91 97 154 149 135 181 86 57 144 358 177 320 2 350 0 21 356 20 328 28 101 147 123 129 137 142 136 136 138 139 147 144 110 125 122 142 143 135 127 118 120 125 123 118 114 111 107 102 98 93 88 81 76 75 75 74 75 76 75 75 77 77 78 83 88 91 90 95 99 97 92 91 91 89 84 80 75 72 71 70 70 71
316 322 276 230 233 245 213 178 275 165 171 133 74 66 111 110 184 179 149 169 36 82 112 72 181 20 16 336 322 309 84 44 29 74 84 120 121 132 123 151 159 152 143 141 143 153 146 120 87 122 136 161 128 124 122 118 118 114 112 112 107 104 100 97 95 91 83 78 77 76 76 75 75 74 76 76 79 80 81 86 90 95 95 98 98 97 94 85 89 87 82 79 76 73 72 71 70
327 307 236 219 230 230 292 209 263 53 237 107 99 86 122 151 177 138 81 56 78 93 93 94 102 186 225 248 243 298 79 69 84 89 112 143 140 154 159 157 162 156 148 145 145 147 149 128 111 129 146 149 134 127 125 122 120 117 111 107 105 103 101 99 99 95 86 82 79 78 78 78 78 79 79 79 81 82 82 84 87 90 96 101 103 100 91 90 85 84 83 82 79 77 75 73 73
292 280 267 239 241 199 240 220 295 307 19 56 125 120 145 163 121 95 76 81 88 109 131 142 184 72 285 247 19 288 108 107 74 113 119 171 131 140 151 156 156 162 148 151 150 142 145 121 118 133 146 148 138 132 129 129 124 121 117 112 108 104 104 104 105 100 91 86 81 79 79 79 80 81 83 83 84 88 87 85 88 93 98 95 99 100 92 86 85 83 85 87 86 81 77 75 73
263 237 253 263 288 226 298 337 333 271 35 28 69 128 138 148 119 116 95 97 101 113 206 133 209 127 313 310 316 315 79 90 107 26 123 91 124 133 143 155 167 156 155 161 152 143 121 110 110 115 153 147 149 137 130 131 129 124 119 116 114 111 109 110 107 104 97 90 84 81 82 82 84 84 83 86 86 87 91 95 94 98 100 98 97 93 92 93 91 92 88 85 81 80 77 74 73
248 251 210 258 276 2 257 221 184 79 50 349 69 114 132 117 134 123 118 124 108 99 1 200 324 122 189 183 21 344 68 185 124 91 119 135 90 126 146 163 164 163 158 158 148 150 133 116 114 114 151 154 148 145 136 138 134 125 126 123 117 114 114 118 117 109 101 92 87 85 85 88 89 88 89 91 93 91 93 96 99 99 95 97 96 91 92 94 93 91 88 84 82 80 77 74 74
251 221 185 207 199 239 267 302 50 51 66 2 61 117 131 127 124 134 135 131 159 264 152 260 273 243 226 118 142 65 85 75 159 91 35 119 125 153 153 168 169 166 158 157 157 138 124 120 124 132 151 151 153 149 143 139 140 136 129 126 125 125 123 121 119 112 104 98 93 91 91 92 93 93 95 96 97 98 95 94 96 94 96 95 89 94 96 96 93 87 84 83 82 80 78 77 75
262 271 133 241 176 241 259 47 42 4 83 39 48 94 125 127 140 150 153 187 160 213 178 224 254 271 51 228 239 100 99 52 73 107 115 142 142 163 169 168 173 166 157 156 159 114 118 123 127 120 148 158 156 158 147 144 144 141 137 136 138 132 129 126 120 113 108 104 100 98 98 98 99 99 100 101 99 99 99 101 100 92 88 85 85 87 89 89 88 86 85 84 83 82 80 79 75
216 258 122 262 221 214 234 104 67 71 104 113 125 52 41 137 159 162 165 150 122 228 164 189 209 249 107 154 60 133 112 119 100 81 120 130 149 156 175 171 173 166 160 159 144 124 141 111 118 131 139 153 167 167 154 148 146 145 144 144 143 138 131 126 120 115 112 108 104 103 101 101 103 104 104 104 103 102 102 103 103 96 98 95 88 89 90 89 88 87 87 87 86 85 83 79 74
192 260 194 248 338 212 269 132 213 82 91 105 122 152 149 148 168 201 167 171 156 178 106 74 173 276 14 180 126 173 138 134 126 127 129 143 152 158 175 186 173 174 161 161 154 155 139 114 99 100 138 159 171 174 163 153 152 151 150 151 146 141 133 127 124 122 120 114 110 108 106 104 104 104 105 104 104 102 103 102 102 103 98 89 92 90 90 88 90 92 91 90 90 86 83 79 74
206 186 334 246 214 261 240 113 110 144 129 139 130 138 156 163 173 189 198 159 116 202 124 169 205 234 221 164 62 69 112 135 154 145 143 146 162 165 174 186 183 183 168 159 162 156 145 149 110 91 105 135 149 162 158 166 158 157 156 153 149 142 137 134 130 127 124 120 115 113 110 109 107 105 106 105 103 102 100 101 101 103 103 98 90 85 87 91 95 96 97 98 94 87 83 78 73
226 208 186 245 245 266 45 37 84 109 129 161 149 149 155 166 179 193 191 204 180 209 197 177 28 350 224 202 119 140 137 150 161 135 145 150 174 178 176 180 184 190 166 169 160 161 157 156 163 125 109 115 122 144 161 155 179 163 160 160 151 144 143 140 137 134 130 124 119 114 112 110 108 108 107 106 103 103 102 101 102 99 100 99 97 96 98 97 98 101 99 98 91 87 82 77 73
270 183 210 249 328 255 50 281 96 64 184 189 149 152 153 169 188 199 191 224 183 205 204 188 26 254 238 185 92 130 155 156 140 132 140 167 161 168 177 178 193 190 163 176 172 170 164 164 170 166 148 118 122 166 171 145 181 163 154 157 158 150 146 145 143 140 135 129 121 116 111 106 107 108 108 107 108 108 108 106 107 105 103 101 98 96 94 93 94 95 97 95 92 84 81 77 72
276 210 244 237 61 277 283 359 71 257 207 122 115 138 163 176 199 219 205 204 196 218 49 75 205 322 270 109 151 160 154 147 129 135 139 157 157 167 182 189 185 195 179 175 178 177 174 175 171 173 151 175 175 148 138 121 151 136 152 141 164 155 149 145 146 142 137 126 109 108 109 108 108 108 108 108 108 105 105 106 107 108 105 102 102 99 97 96 96 95 97 98 90 82 78 74 70
276 316 249 283 257 247 163 261 36 220 78 125 131 148 162 181 118 199 227 224 121 58 113 16 348 253 84 231 139 166 142 138 135 137 147 150 165 177 184 184 171 179 178 177 160 189 186 181 178 176 179 185 177 183 185 145 150 162 189 160 171 158 149 142 135 131 129 115 108 103 98 93 91 95 96 97 97 96 98 102 105 107 110 108 106 103 101 99 98 97 99 96 87 83 78 72 68
320 240 235 240 241 246 150 227 199 278 137 129 148 146 168 156 192 210 206 357 69 68 196 181 192 287 344 18 75 79 120 129 128 140 147 158 166 167 180 192 181 177 200 151 145 194 160 181 190 182 193 186 179 187 179 181 140 172 171 169 157 163 154 134 129 129 128 118 109 108 105 102 101 95 100 100 101 107 108 109 109 112 114 113 110 108 105 102 101 99 97 92 87 82 76 70 65
279 274 212 227 242 208 138 223 162 239 93 110 144 158 178 182 168 254 38 271 250 158 199 177 193 194 354 70 93 110 116 116 133 143 153 161 170 168 192 194 195 189 196 197 184 195 179 166 187 183 191 197 197 184 194 168 163 142 148 143 150 183 152 133 123 121 122 121 123 124 130 124 120 119 116 112 107 105 108 112 115 116 116 115 112 110 108 106 104 102 100 96 93 88 80 70 61
242 212 230 222 255 215 145 231 198 39 271 138 168 174 187 174 162 171 159 218 240 186 215 178 149 207 74 110 119 119 130 146 154 155 166 170 180 178 190 194 198 198 193 207 197 194 192 193 188 186 184 203 203 198 191 173 150 190 187 149 157 168 147 130 138 143 143 141 138 152 148 138 141 133 116 120 113 114 110 113 115 116 115 114 113 112 110 109 108 108 107 105 103 103 101 90 77
217 223 232 248 215 65 35 317 52 231 25 128 164 178 199 191 168 149 209 207 202 222 224 198 208 199 144 138 134 151 150 160 165 173 174 182 185 187 190 193 197 208 201 204 200 190 195 185 204 188 183 188 206 205 193 178 163 186 179 171 162 184 158 163 159 155 163 156 165 170 160 159 148 133 139 115 120 104 106 111 112 113 114 111 112 111 110 110 110 110 109 107 106 111 100 97 91
233 265 217 241 56 75 50 21 82 48 12 140 156 172 214 107 198 123 219 236 192 226 226 198 221 208 189 166 156 154 167 170 178 186 188 192 193 189 192 197 199 206 200 198 201 193 194 195 200 203 196 183 184 204 200 195 188 176 190 183 143 177 161 195 169 172 171 168 178 186 171 158 141 106 91 100 106 120 108 101 101 101 102 105 108 106 105 105 107 108 113 126 128 106 103 98 90
106 233 250 29 5 219 75 58 65 60 19 39 153 139 203 155 202 178 206 241 230 241 243 235 209 220 185 169 166 163 174 179 188 200 199 199 203 197 195 201 200 197 198 196 205 198 194 190 187 197 199 190 190 186 206 212 200 192 195 190 187 185 187 185 192 179 177 177 188 194 166 160 134 129 133 143 147 133 134 129 128 128 126 125 128 117 118 123 121 122 133 122 98 103 100 98 95
208 234 35 356 28 242 65 68 50 39 32 19 118 166 204 105 192 228 235 234 234 293 231 215 253 28 139 161 172 173 181 184 192 200 208 204 202 202 197 196 200 201 187 194 196 196 199 202 189 192 200 202 203 196 198 214 212 210 203 194 191 192 195 198 188 192 184 183 188 198 169 169 155 148 155 164 149 147 147 154 149 140 140 137 138 130 137 135 129 123 115 106 96 90 87 85 81
231 148 115 45 20 20 56 79 59 319 65 122 184 81 64 199 237 220 235 238 253 64 42 56 68 74 139 158 161 178 186 192 195 202 206 209 206 206 204 198 191 195 192 201 189 190 198 205 199 201 198 199 203 203 189 197 212 222 211 195 198 198 195 201 194 194 190 185 194 190 182 175 161 160 167 172 159 162 163 164 153 148 149 149 148 144 141 135 120 110 95 89 85 84 82 79 77
282 85 136 87 27 51 39 56 74 140 279 63 34 3 246 214 247 122 243 243 251 91 87 77 83 112 138 160 177 185 191 194 200 205 205 210 209 207 206 203 194 190 185 192 192 194 189 195 188 181 203 206 196 208 207 198 201 218 224 209 206 196 187 195 201 203 189 192 191 198 196 183 174 165 173 174 173 173 175 167 157 157 159 156 153 146 143 130 116 106 99 92 90 84 81 78 79
228 176 146 98 87 77 77 81 126 131 208 10 271 243 243 231 275 4 254 250 248 220 139 131 127 129 164 188 187 196 198 202 207 207 209 215 215 211 206 211 206 196 200 195 194 193 181 186 183 187 196 207 201 198 212 213 203 206 212 219 223 191 200 196 198 200 199 189 190 192 196 202 188 180 173 176 177 178 184 172 164 167 165 158 149 149 143 127 120 117 118 114 107 100 91 84 78
266 98 121 127 105 105 98 116 117 154 110 204 213 240 190 218 353 264 258 253 246 213 166 193 190 198 199 205 203 201 203 205 206 204 207 207 212 210 207 206 206 207 205 200 195 195 186 187 190 190 201 207 216 216 216 216 209 210 217 215 229 206 210 200 191 208 206 193 182 186 199 206 198 191 182 178 172 171 190 166 177 171 166 157 150 149 141 132 131 130 121 120 113 104 96 89 87
101 125 126 126 119 129 154 176 125 113 82 162 251 247 195 127 221 264 216 42 97 215 235 224 215 228 225 216 212 209 210 208 204 203 200 203 205 209 208 205 207 208 201 204 201 198 196 189 192 195 202 209 213 218 222 219 216 209 211 222 202 206 209 201 194 200 212 206 187 187 195 209 200 198 182 177 176 170 181 177 182 170 164 157 151 143 144 140 134 130 131 130 125 113 105 100 98
131 126 124 120 147 144 143 160 137 206 146 202 284 279 279 179 206 242 199 131 129 211 233 225 221 233 233 226 217 211 215 215 206 200 202 197 201 200 202 200 204 203 202 205 206 201 201 202 196 199 201 195 199 207 210 226 225 219 200 212 219 202 215 207 196 201 208 217 200 190 194 203 201 198 180 164 174 175 174 186 183 172 165 149 143 135 136 141 136 131 130 121 117 118 115 110 105
138 189 185 153 164 195 177 188 128 255 105 219 348 284 257 196 229 237 202 160 172 209 236 231 232 234 230 229 218 210 213 210 205 206 208 206 202 200 207 204 202 203 207 205 203 199 205 203 206 206 208 208 205 212 214 212 224 228 217 202 220 210 210 221 208 192 197 203 207 194 195 202 197 200 192 170 170 178 178 181 169 164 141 123 120 137 144 142 133 127 121 123 117 114 110 109 108
171 196 278 168 199 225 161 128 122 231 98 192 248 265 247 218 224 222 142 176 185 240 246 242 242 239 233 217 213 216 213 206 208 210 209 210 207 204 208 205 201 199 198 198 201 203 199 199 199 204 205 210 211 213 212 213 212 223 223 215 201 212 213 200 220 209 190 196 201 195 194 205 198 191 187 180 171 170 176 182 175 157 144 143 142 149 158 150 136 129 129 125 119 121 123 124 117
202 150 260 247 195 189 137 183 138 221 110 188 229 260 267 333 119 119 117 148 221 244 251 252 247 241 234 226 221 221 215 209 214 210 208 208 208 207 207 205 200 198 192 195 198 199 195 191 185 195 192 204 202 211 214 217 217 217 224 218 212 201 205 218 202 207 206 194 187 190 188 206 209 187 171 174 191 168 165 178 181 169 151 152 157 152 151 143 139 135 136 128 130 122 122 118 114
171 177 212 209 240 115 132 140 175 232 135 199 193 256 265 270 117 79 87 183 228 245 255 259 256 251 242 235 235 235 232 217 217 219 209 204 204 202 200 202 196 195 197 193 192 191 196 190 181 191 188 199 201 206 213 217 222 224 225 228 215 170 185 227 225 196 185 182 188 187 184 195 209 196 178 176 187 175 178 176 176 159 157 149 154 140 144 146 143 132 132 136 131 129 127 120 113
205 236 185 190 215 170 158 149 120 57 118 179 213 256 297 223 110 141 129 208 215 243 256 257 258 257 252 244 241 241 238 230 220 215 208 199 201 199 197 198 196 196 196 194 190 189 196 190 184 193 193 196 203 203 208 217 222 225 225 216 216 183 180 214 219 209 193 187 184 180 186 184 195 186 171 178 167 166 167 167 159 157 150 151 157 151 147 161 143 128 125 131 133 134 130 121 113
203 208 248 191 209 205 240 111 159 132 229 213 210 243 251 271 263 164 173 187 203 246 260 263 265 260 247 239 240 236 232 230 229 216 204 198 196 197 197 197 197 194 197 197 194 191 194 191 188 193 195 194 198 201 200 203 213 220 221 217 201 209 185 211 202 189 189 187 183 183 185 174 188 180 177 183 182 169 170 146 145 152 148 149 150 147 134 138 147 137 126 129 130 128 133 131 120
204 187 223 214 231 255 287 199 126 212 172 253 243 234 252 262 270 274 250 200 218 247 259 265 266 266 266 257 246 242 236 229 234 220 197 191 191 193 196 193 194 194 196 197 195 193 191 191 188 187 193 193 194 194 188 193 205 214 224 215 192 212 216 217 201 184 185 181 183 181 179 173 186 182 177 182 169 142 147 140 141 151 154 148 146 142 137 150 158 147 130 126 116 117 130 132 123
338 209 219 256 225 198 228 123 112 261 232 234 239 253 259 255 262 261 258 257 240 243 253 257 258 258 256 253 253 250 243 243 242 214 183 177 184 185 190 189 192 192 193 194 196 193 191 191 188 186 192 192 189 184 180 186 199 206 207 206 199 206 212 209 189 196 183 181 180 169 182 179 181 180 174 164 161 159 152 158 158 158 157 158 153 150 152 157 160 133 123 127 116 97 102 125 124
28 351 305 266 274 261 112 95 76 142 280 253 252 258 261 264 268 271 273 271 265 259 250 249 246 244 244 246 248 246 242 243 208 159 165 175 180 181 181 183 190 191 194 193 194 195 195 192 186 191 188 189 186 180 176 182 195 202 209 209 207 210 201 189 196 204 198 188 171 180 180 182 179 175 176 167 161 151 149 145 157 167 168 166 164 165 163 145 135 123 121 127 128 121 118 141 131
294 289 276 250 191 266 76 104 118 119 256 277 281 277 269 268 264 266 266 262 259 254 252 247 247 243 241 242 245 242 242 237 163 170 176 176 178 176 176 183 188 190 198 196 195 195 194 193 191 190 184 189 190 186 175 185 198 199 195 205 203 204 172 178 187 187 201 185 174 176 178 184 180 176 175 171 156 149 148 152 155 165 168 174 171 160 154 142 138 138 137 107 103 130 140 160 153
234 261 255 273 244 222 107 84 140 144 243 268 283 290 286 281 275 270 262 259 260 255 248 250 250 248 244 244 245 247 242 234 206 209 183 179 174 176 179 186 194 202 196 199 199 195 193 194 195 191 188 187 190 187 181 186 194 205 207 202 196 187 161 151 170 157 149 166 161 163 152 167 172 173 176 177 166 164 160 159 163 157 171 168 161 156 152 152 154 157 159 143 142 110 126 165 168
240 220 238 238 73 285 206 105 72 183 234 301 320 302 288 286 275 259 249 243 251 256 256 258 252 251 247 245 245 247 245 241 235 229 206 173 170 177 181 188 194 196 198 199 198 199 196 198 195 192 190 187 187 187 186 183 188 203 209 215 195 182 168 123 100 83 124 141 166 167 182 162 157 167 166 168 173 177 170 161 160 166 171 172 166 154 161 161 160 164 158 151 143 134 151 179 203
214 239 244 257 262 233 309 48 282 230 240 277 286 278 270 268 269 265 248 228 247 257 255 250 244 244 250 259 260 249 249 246 242 232 218 179 173 183 188 187 184 191 198 198 197 196 198 198 196 194 190 187 186 181 182 184 174 129 102 83 83 83 81 142 155 188 184 164 148 170 185 126 132 150 158 166 171 180 173 172 173 174 170 170 165 167 165 172 169 170 164 158 171 151 160 165 195
210 207 226 256 294 316 73 355 338 286 265 151 291 308 265 269 266 271 271 191 219 228 232 236 232 232 230 235 236 240 240 239 241 240 226 199 181 181 183 182 187 194 199 200 196 198 196 195 194 193 191 185 186 183 181 183 159 181 158 166 176 182 184 181 195 193 174 179 184 153 141 148 135 155 156 157 169 173 171 175 172 172 170 168 169 173 157 147 160 161 170 170 174 169 151 160 174
246 164 252 246 266 5 298 296 297 268 283 94 277 290 285 298 286 276 277 278 275 263 226 243 247 242 235 227 227 231 235 231 221 222 215 211 196 181 182 187 192 195 201 192 193 198 198 195 194 192 189 183 184 177 178 178 184 196 186 195 190 189 195 193 182 155 160 171 167 163 143 134 156 139 118 164 137 179 172 168 172 173 167 166 159 156 165 172 174 177 169 175 180 165 157 159 172
231 33 303 71 181 211 260 268 249 276 338 260 188 229 270 280 266 272 273 271 271 265 258 256 251 244 242 244 239 245 254 257 241 209 205 207 210 202 201 193 192 198 188 186 191 196 196 196 191 189 186 182 177 175 180 184 195 194 187 198 199 201 206 185 166 166 170 163 162 150 142 167 145 145 143 131 145 169 169 170 170 171 171 169 164 170 169 173 177 187 187 180 175 176 173 167 171
41 42 7 81 80 99 149 236 271 296 339 290 175 196 256 243 243 248 243 259 258 255 253 252 247 240 247 238 238 249 253 254 234 217 215 204 202 210 208 195 192 189 186 186 190 190 194 195 192 188 188 182 178 177 174 184 191 190 187 195 204 208 206 200 166 162 160 147 147 148 163 150 141 121 125 124 130 159 170 175 176 169 172 178 183 176 175 177 181 180 185 187 181 184 186 176 169
131 134 87 87 88 73 145 284 282 280 282 266 162 184 257 279 244 216 203 249 258 257 264 261 256 129 132 129 123 164 156 167 208 225 193 161 153 164 180 177 178 186 181 184 185 187 190 192 194 191 195 187 182 176 170 175 180 184 196 197 205 203 185 167 162 156 154 154 158 161 160 154 163 159 139 116 138 116 162 180 185 183 178 171 182 186 174 176 183 190 189 189 180 186 189 187 184
136 154 112 107 93 115 196 295 291 289 251 266 161 182 226 292 240 207 174 221 226 241 232 171 127 136 141 136 156 158 159 163 168 167 157 133 102 115 135 175 175 171 176 181 184 190 189 193 194 195 194 190 183 179 175 178 180 186 194 199 205 211 195 196 167 159 146 163 170 169 173 166 163 162 151 152 148 149 144 171 184 186 176 173 182 188 179 177 184 190 191 195 194 191 187 187 187
167 154 164 156 191 165 225 217 135 240 254 83 20 188 195 255 276 136 71 355 354 287 240 158 143 163 148 156 150 145 154 165 153 164 158 156 148 159 165 180 181 178 177 186 187 188 193 194 196 198 196 194 185 180 179 182 184 189 195 200 208 210 187 193 187 185 185 181 175 171 168 162 164 154 157 151 157 158 169 186 192 171 183 178 188 193 184 182 180 183 189 198 196 190 186 187 187
233 177 180 200 220 159 225 185 218 204 246 107 20 7 271 233 246 133 175 238 286 232 258 280 288 281 265 184 168 157 162 165 173 174 167 168 177 176 183 185 183 185 187 188 186 184 190 194 197 198 199 194 190 185 184 187 187 191 194 199 205 210 197 182 183 193 181 188 171 170 173 176 153 158 183 175 174 171 177 180 178 184 181 187 187 192 192 186 184 191 195 196 191 183 183 183 179
194 194 181 190 226 221 241 221 222 246 93 292 53 68 255 271 287 257 253 245 241 258 297 325 306 280 282 280 199 174 169 181 192 200 201 199 190 180 181 179 183 186 187 187 185 183 186 191 196 200 201 195 192 189 190 193 194 192 194 200 210 203 199 179 188 184 173 180 176 182 181 179 178 191 186 196 185 177 185 184 179 183 182 182 186 191 190 190 188 193 193 190 180 181 169 169 159
200 205 192 205 212 219 236 217 225 226 262 98 248 149 241 228 219 22 5 5 2 322 280 279 272 265 255 266 273 260 229 204 197 215 221 217 207 192 177 176 178 180 184 185 187 187 185 191 194 197 201 197 191 192 191 196 197 198 195 192 189 193 183 183 199 185 169 177 174 174 180 183 190 190 193 190 172 178 182 176 173 182 188 189 188 189 185 182 186 187 180 174 159 143 133 141 110
197 217 234 238 234 235 257 321 335 309 82 205 175 228 267 233 352 304 279 278 275 253 241 236 262 265 240 262 255 257 238 219 208 221 235 236 220 191 176 173 173 175 184 187 191 189 189 191 194 197 201 202 197 188 193 199 201 195 197 194 196 201 180 177 185 185 191 190 173 179 183 189 196 192 186 178 177 173 180 178 173 182 186 185 183 188 182 178 179 173 149 149 124 89 122 119 109
174 159 212 210 28 271 263 121 107 62 309 260 214 261 260 287 279 257 252 253 253 252 253 233 232 199 193 249 249 229 222 213 224 218 226 224 183 183 184 178 176 177 181 189 191 191 191 188 192 197 199 203 204 195 193 194 204 201 200 198 196 198 194 193 194 191 187 172 172 174 190 192 179 184 177 174 167 170 169 166 172 174 177 175 180 180 174 164 159 153 144 134 127 119 115 120 115
113 209 205 64 28 12 232 251 172 222 245 258 216 246 273 289 284 59 187 237 254 260 265 258 259 255 220 219 232 205 175 205 239 228 217 201 185 184 185 186 182 180 182 186 192 190 193 193 193 194 196 199 202 198 195 196 202 208 202 198 196 194 190 192 195 196 176 178 177 153 181 189 195 184 153 146 158 171 178 174 178 182 174 166 169 158 152 147 152 143 121 125 125 127 119 109 107
326 221 27 179 207 217 215 237 239 243 239 259 246 252 254 247 258 266 269 251 242 235 249 260 260 248 248 248 248 142 161 185 224 215 187 187 193 187 182 179 181 182 185 187 190 190 192 196 197 195 196 198 199 198 194 196 201 207 216 208 198 191 186 188 195 186 179 187 186 182 189 193 184 151 146 153 158 168 172 172 178 177 172 169 159 152 155 151 154 137 133 126 131 134 128 119 112
291 321 231 321 329 240 206 200 246 242 255 249 255 248 257 234 248 266 269 272 272 277 280 280 274 270 270 267 296 124 156 182 217 227 199 177 175 176 173 173 179 182 183 187 188 190 195 195 195 197 199 199 199 200 192 197 201 206 211 216 199 192 188 186 185 179 193 200 193 183 181 182 185 142 165 162 170 176 175 177 179 173 169 166 154 150 160 155 151 141 144 138 141 137 127 127 125
187 219 225 176 212 25 348 278 219 219 243 247 267 263 253 254 250 253 261 271 279 286 285 274 283 283 272 281 338 29 204 199 210 211 181 164 155 153 157 167 174 175 181 186 191 194 195 194 196 194 195 197 202 201 197 197 195 205 205 202 191 190 190 185 182 185 195 194 191 185 180 185 160 165 165 171 179 178 177 179 174 174 173 170 161 156 159 157 153 143 142 133 138 137 135 132 131
187 190 206 202 188 201 218 245 204 233 225 243 248 257 276 268 266 267 278 286 291 291 291 294 289 276 290 289 209 243 279 269 246 210 147 140 135 138 151 162 165 173 187 195 196 195 197 197 197 193 193 199 201 203 203 199 195 199 205 202 197 191 190 184 182 184 193 191 189 185 178 161 178 179 169 177 177 172 172 176 178 174 174 172 160 158 162 160 153 141 129 137 145 145 140 135 137